• In Belgium
  • List of Countries
  • For 7 days
  • Water Temperature
  • Satellite Maps
  • Weather Map
  • Weather Widgets
  • user-avatar
    Login

    Hourly Weather Oleshky (Cyuryupinsk)

    Today, 22 July, Sunday

    Time Temperature Precipitation Wind Pressure Humidity
    00:00 +25°C° 0 mm 3 mps 755 mmHg 69%
    01:00 +24°C° 0 mm 3 mps 755 mmHg 71%
    02:00 +24°C° 0 mm 2 mps 755 mmHg 73%
    03:00 +24°C° 0 mm 2 mps 755 mmHg 74%
    04:00 +23°C° 0 mm 2 mps 755 mmHg 76%
    05:00 +23°C° 0 mm 2 mps 755 mmHg 77%
    06:00 +25°C° 0 mm 2 mps 755 mmHg 70%
    07:00 +27°C° 0 mm 3 mps 755 mmHg 62%
    08:00 +28°C° 0 mm 3 mps 755 mmHg 55%
    09:00 +30°C° 0 mm 3 mps 755 mmHg 49%
    10:00 +32°C° 0 mm 4 mps 755 mmHg 44%
    11:00 +33°C° 0 mm 4 mps 755 mmHg 39%
    12:00 +34°C° 0 mm 4 mps 755 mmHg 37%
    13:00 +34°C° 0 mm 4 mps 754 mmHg 35%
    14:00 +35°C° 0 mm 5 mps 754 mmHg 33%
    15:00 +34°C° 0 mm 5 mps 754 mmHg 35%
    16:00 +34°C° 0 mm 5 mps 754 mmHg 36%
    17:00 +33°C° 0 mm 5 mps 754 mmHg 37%
    18:00 +32°C° 0 mm 5 mps 754 mmHg 43%
    19:00 +29°C° 0 mm 4 mps 754 mmHg 49%
    20:00 +28°C° 0 mm 4 mps 754 mmHg 54%
    21:00 +27°C° 0 mm 4 mps 754 mmHg 59%
    22:00 +26°C° 0 mm 3 mps 754 mmHg 63%
    23:00 +26°C° 0 mm 3 mps 754 mmHg 68%

    Tomorrow, 23 July, Monday

    Time Temperature Precipitation Wind Pressure Humidity
    00:00 +25°C° 0.1 mm 3 mps 754 mmHg 69%
    01:00 +25°C° 0.1 mm 2 mps 754 mmHg 70%
    02:00 +25°C° 0.1 mm 2 mps 754 mmHg 72%
    03:00 +24°C° 0 mm 2 mps 754 mmHg 72%
    04:00 +24°C° 0 mm 2 mps 754 mmHg 73%
    05:00 +24°C° 0 mm 2 mps 754 mmHg 73%
    06:00 +26°C° 0 mm 2 mps 754 mmHg 65%
    07:00 +28°C° 0 mm 2 mps 753 mmHg 57%
    08:00 +30°C° 0 mm 2 mps 753 mmHg 49%
    09:00 +31°C° 0 mm 3 mps 753 mmHg 43%
    10:00 +33°C° 0 mm 3 mps 753 mmHg 38%
    11:00 +34°C° 0 mm 4 mps 753 mmHg 33%
    12:00 +34°C° 0 mm 4 mps 753 mmHg 31%
    13:00 +35°C° 0 mm 4 mps 752 mmHg 30%
    14:00 +35°C° 0 mm 4 mps 752 mmHg 29%
    15:00 +35°C° 0 mm 5 mps 752 mmHg 30%
    16:00 +34°C° 0 mm 5 mps 752 mmHg 32%
    17:00 +34°C° 0 mm 5 mps 752 mmHg 34%
    18:00 +32°C° 0 mm 4 mps 752 mmHg 41%
    19:00 +29°C° 0 mm 4 mps 752 mmHg 48%
    20:00 +27°C° 0 mm 3 mps 753 mmHg 55%
    21:00 +27°C° 0 mm 3 mps 753 mmHg 58%
    22:00 +26°C° 0 mm 2 mps 753 mmHg 62%
    23:00 +25°C° 0 mm 2 mps 753 mmHg 66%

    Day after tomorrow, 24 July, Tuesday

    Time Temperature Precipitation Wind Pressure Humidity
    00:00 +25°C° 0 mm 1 mps 753 mmHg 68%
    01:00 +24°C° 0 mm 1 mps 752 mmHg 69%
    02:00 +24°C° 0 mm 1 mps 752 mmHg 71%
    03:00 +24°C° 0.1 mm 1 mps 752 mmHg 72%
    04:00 +24°C° 0.1 mm 1 mps 752 mmHg 73%
    05:00 +22°C° 0.1 mm 0 mps 753 mmHg 74%
    06:00 +26°C° 0 mm 1 mps 753 mmHg 66%
    07:00 +28°C° 0 mm 1 mps 753 mmHg 57%
    08:00 +30°C° 0 mm 2 mps 753 mmHg 49%
    09:00 +31°C° 0 mm 2 mps 753 mmHg 45%
    10:00 +33°C° 0 mm 3 mps 753 mmHg 40%
    11:00 +34°C° 0 mm 3 mps 753 mmHg 36%
    12:00 +35°C° 0 mm 3 mps 753 mmHg 35%
    13:00 +35°C° 0 mm 3 mps 752 mmHg 34%
    14:00 +35°C° 0 mm 2 mps 752 mmHg 33%
    15:00 +35°C° 0 mm 3 mps 752 mmHg 33%
    16:00 +35°C° 0 mm 3 mps 752 mmHg 32%
    17:00 +35°C° 0 mm 3 mps 752 mmHg 32%
    18:00 +33°C° 0 mm 3 mps 752 mmHg 38%
    19:00 +31°C° 0 mm 3 mps 753 mmHg 45%
    20:00 +29°C° 0 mm 3 mps 753 mmHg 51%
    21:00 +28°C° 0.2 mm 3 mps 753 mmHg 56%
    22:00 +27°C° 0.2 mm 3 mps 753 mmHg 60%
    23:00 +26°C° 0.2 mm 3 mps 753 mmHg 65%

    25 July, Wednesday

    Time Temperature Precipitation Wind Pressure Humidity
    00:00 +25°C° 0.1 mm 2 mps 753 mmHg 68%
    01:00 +25°C° 0.1 mm 2 mps 753 mmHg 70%
    02:00 +24°C° 0.1 mm 2 mps 753 mmHg 72%
    03:00 +24°C° 0 mm 2 mps 753 mmHg 73%
    04:00 +24°C° 0 mm 2 mps 753 mmHg 74%
    05:00 +24°C° 0 mm 3 mps 753 mmHg 75%
    06:00 +26°C° 0 mm 3 mps 754 mmHg 67%
    07:00 +28°C° 0 mm 3 mps 754 mmHg 59%
    08:00 +30°C° 0 mm 3 mps 754 mmHg 52%
    09:00 +31°C° 0 mm 3 mps 754 mmHg 46%
    10:00 +34°C° 0 mm 3 mps 754 mmHg 41%
    11:00 +35°C° 0 mm 3 mps 754 mmHg 35%
    12:00 +35°C° 0 mm 3 mps 754 mmHg 35%
    13:00 +36°C° 0 mm 3 mps 754 mmHg 35%
    14:00 +36°C° 0 mm 3 mps 754 mmHg 34%
    15:00 +35°C° 0 mm 3 mps 754 mmHg 36%
    16:00 +35°C° 0 mm 3 mps 754 mmHg 37%
    17:00 +35°C° 0 mm 3 mps 754 mmHg 38%
    18:00 +33°C° 0.8 mm 3 mps 754 mmHg 46%
    19:00 +30°C° 0.8 mm 3 mps 754 mmHg 55%
    20:00 +28°C° 0.8 mm 3 mps 754 mmHg 63%
    21:00 +27°C° 0.7 mm 3 mps 754 mmHg 67%
    22:00 +26°C° 0.7 mm 3 mps 754 mmHg 70%
    23:00 +26°C° 0.7 mm 3 mps 755 mmHg 73%

    26 July, Thursday

    Time Temperature Precipitation Wind Pressure Humidity
    00:00 +26°C° 0 mm 3 mps 755 mmHg 73%
    01:00 +25°C° 0 mm 2 mps 755 mmHg 73%
    02:00 +25°C° 0 mm 2 mps 754 mmHg 73%
    03:00 +25°C° 0 mm 2 mps 755 mmHg 75%
    04:00 +25°C° 0 mm 3 mps 755 mmHg 76%
    05:00 +25°C° 0 mm 3 mps 755 mmHg 78%
    06:00 +26°C° 0 mm 3 mps 755 mmHg 71%
    07:00 +28°C° 0 mm 3 mps 755 mmHg 64%
    08:00 +30°C° 0 mm 3 mps 755 mmHg 57%
    09:00 +33°C° 0 mm 3 mps 755 mmHg 51%
    10:00 +34°C° 0 mm 3 mps 755 mmHg 45%
    11:00 +35°C° 0 mm 3 mps 755 mmHg 39%
    12:00 +36°C° 0 mm 3 mps 755 mmHg 38%
    13:00 +37°C° 0 mm 3 mps 755 mmHg 36%
    14:00 +37°C° 0 mm 3 mps 755 mmHg 34%
    15:00 +37°C° 0 mm 3 mps 755 mmHg 35%
    16:00 +37°C° 0 mm 3 mps 755 mmHg 36%
    17:00 +36°C° 0 mm 3 mps 755 mmHg 37%
    18:00 +35°C° 0 mm 3 mps 755 mmHg 41%
    19:00 +33°C° 0 mm 3 mps 755 mmHg 45%
    20:00 +30°C° 0 mm 3 mps 756 mmHg 49%
    21:00 +29°C° 0.1 mm 3 mps 756 mmHg 51%
    22:00 +28°C° 0.1 mm 2 mps 756 mmHg 54%
    23:00 +27°C° 0.1 mm 2 mps 756 mmHg 57%

    27 July, Friday

    Time Temperature Precipitation Wind Pressure Humidity
    00:00 +27°C° 0.1 mm 3 mps 755 mmHg 59%
    01:00 +26°C° 0.1 mm 3 mps 755 mmHg 62%
    02:00 +25°C° 0.1 mm 3 mps 755 mmHg 64%
    03:00 +25°C° 0 mm 4 mps 755 mmHg 66%
    04:00 +25°C° 0 mm 4 mps 755 mmHg 67%
    05:00 +25°C° 0 mm 4 mps 756 mmHg 69%
    06:00 +26°C° 0 mm 4 mps 756 mmHg 65%
    07:00 +28°C° 0 mm 3 mps 756 mmHg 61%
    08:00 +30°C° 0 mm 3 mps 756 mmHg 57%
    09:00 +31°C° 0 mm 3 mps 756 mmHg 53%
    10:00 +34°C° 0 mm 3 mps 756 mmHg 48%
    11:00 +36°C° 0 mm 4 mps 756 mmHg 44%
    12:00 +37°C° 0 mm 4 mps 756 mmHg 41%
    13:00 +37°C° 0 mm 4 mps 756 mmHg 39%
    14:00 +38°C° 0 mm 4 mps 756 mmHg 37%
    15:00 +38°C° 0.5 mm 4 mps 756 mmHg 38%
    16:00 +37°C° 0.5 mm 5 mps 756 mmHg 39%
    17:00 +36°C° 0.5 mm 5 mps 756 mmHg 39%
    18:00 +35°C° 0.3 mm 4 mps 756 mmHg 43%
    19:00 +33°C° 0.3 mm 3 mps 756 mmHg 46%
    20:00 +30°C° 0.3 mm 3 mps 756 mmHg 49%
    21:00 +29°C° 0 mm 3 mps 756 mmHg 51%
    22:00 +29°C° 0 mm 3 mps 756 mmHg 52%
    23:00 +28°C° 0 mm 3 mps 756 mmHg 53%
    Show more